Location: Gugi
(45.4667°N, 11.1000°E)
Time: 05:04:33
(UTC+00:00)

Cosmos 2263 Rocket - Pass Details

Date: 17 November 2019
Orbit: 825 x 847 km, 71.0° (Epoch: 07 December)

Event Time Altitude Azimuth Distance (km) Brightness Sun altitude
Rises 18:28:32 0° 333° (NNW) 3,374 5.7 -28.7°
Reaches altitude 10° 18:30:58 10° 334° (NNW) 2,436 4.9 -29.2°
Enters shadow 18:35:08 52° 337° (NNW) 1,020 2.6 -29.9°
